Weather History for KEAU - January, 2014

Change the Weather History Date:

Monday, January 27, 2014

  Actual Average Record
Temperature  
Mean Temperature -10 °F 15 °F  
Max Temperature -3 °F 24 °F 50 °F (2006)
Min Temperature -17 °F 5 °F -31 °F (1904)
Degree Days  
Heating Degree Days 75 50  
Month to date heating degree days 1580 1370  
Since 1 July heating degree days 4990 4546  
Cooling Degree Days 0 0  
Month to date cooling degree days 0 0  
Year to date cooling degree days 0 0  
Moisture  
Dew Point -23 °F    
Average Humidity 59    
Maximum Humidity 66    
Minimum Humidity 52    
Precipitation  
Precipitation 0.00 in 0.03 in 0.51 in (1944)
Month to date precipitation 1.27 0.77  
Year to date precipitation 1.27 0.77  
Snow  
Snow 0.00 in 0.50 in 7.00 in (2010)
Month to date snowfall 19.3 11.6  
Since 1 July snowfall 40.5 27.4  
Snow Depth 15.00 in    
Sea Level Pressure  
Sea Level Pressure 30.34 in    
Wind  
Wind Speed 12 mph (West)    
Max Wind Speed 20 mph    
Max Gust Speed 27 mph    
Visibility 10 miles    
Events Snow    
T = Trace of Precipitation, MM = Missing Value Source: NWS Daily Summary

Daily Weather History Graph

Daily Weather History Graph

Search for Another Location

Airport or City:

Trip Planner

Search our weather history database for the weather conditions in past years. The results will help you decide how hot, cold, wet, or windy it might be!

Date:

Astronomy

Jan. 27, 2014 Rise Set
Actual Time 7:30 AM CST 5:07 PM CST
Civil Twilight 6:59 AM CST 5:38 PM CST
Nautical Twilight 6:23 AM CST 6:14 PM CST
Astronomical Twilight 5:49 AM CST 6:48 PM CST
Moon 4:14 AM CST (1/27) 1:51 PM CST (1/27)
Length of Visible Light 10h 39m
Length of Day
9h 36m
Waning Crescent, 14% of the Moon is Illuminated
Jan 27
Waning Crescent
Jan 30
New
Feb 6
First Quarter
Feb 14
Full
Feb 22
Last Quarter

Hourly Weather History & Observations

Time (CST) Temp. Windchill Dew Point Humidity Pressure Visibility Wind Dir Wind Speed Gust Speed Precip Events Conditions
12:56 AM -4.0 °F -23.7 °F -14.1 °F 62% 30.05 in 10.0 mi WNW 13.8 mph 20.7 mph 0.00 in   Scattered Clouds
1:56 AM -7.1 °F -29.8 °F -18.0 °F 59% 30.08 in 9.0 mi WNW 17.3 mph 24.2 mph 0.00 in Snow Light Snow
2:56 AM -9.0 °F -30.9 °F -20.0 °F 59% 30.12 in 10.0 mi NW 15.0 mph 23.0 mph 0.00 in   Clear
3:56 AM -11.0 °F -30.9 °F -22.0 °F 58% 30.17 in 7.0 mi WNW 11.5 mph 27.6 mph 0.00 in   Clear
4:56 AM -13.0 °F -35.2 °F -24.0 °F 58% 30.21 in 10.0 mi WNW 13.8 mph 23.0 mph 0.00 in   Clear
5:56 AM -14.1 °F -34.7 °F -25.1 °F 58% 30.24 in 9.0 mi WNW 11.5 mph - 0.00 in Snow Light Snow
6:56 AM -16.1 °F -38.2 °F -26.0 °F 61% 30.28 in 10.0 mi NW 12.7 mph - 0.00 in   Clear
7:56 AM -17.0 °F -41.1 °F -27.0 °F 60% 30.31 in 10.0 mi WNW 15.0 mph - N/A   Clear
8:56 AM -16.1 °F -39.9 °F -26.0 °F 61% 30.35 in 10.0 mi NW 15.0 mph 20.7 mph N/A   Clear
9:56 AM -14.1 °F -38.9 °F -25.1 °F 58% 30.37 in 10.0 mi WNW 17.3 mph - N/A   Clear
10:56 AM -13.0 °F -36.0 °F -25.1 °F 55% 30.39 in 10.0 mi WNW 15.0 mph - N/A   Clear
11:45 AM -11.9 °F -33.0 °F -24.0 °F 55% 30.30 in 1.5 mi West 12.7 mph - N/A   Haze
11:56 AM -11.9 °F -34.6 °F -24.0 °F 55% 30.40 in 10.0 mi West 15.0 mph - N/A   Clear
12:56 PM -11.0 °F -33.5 °F -23.1 °F 55% 30.39 in 10.0 mi West 15.0 mph - N/A   Clear
1:56 PM -9.0 °F -31.7 °F -22.0 °F 53% 30.40 in 10.0 mi West 16.1 mph - N/A   Clear
2:56 PM -9.0 °F -30.9 °F -20.9 °F 56% 30.41 in 10.0 mi West 15.0 mph 21.9 mph N/A   Clear
3:56 PM -8.0 °F -27.1 °F -20.9 °F 53% 30.42 in 10.0 mi West 11.5 mph - N/A   Clear
4:56 PM -9.0 °F -27.4 °F -20.9 °F 56% 30.43 in 10.0 mi West 10.4 mph - N/A   Clear
5:56 PM -11.0 °F -26.2 °F -22.0 °F 58% 30.44 in 10.0 mi West 6.9 mph - N/A   Clear
6:56 PM -13.0 °F -25.1 °F -23.1 °F 61% 30.44 in 10.0 mi West 4.6 mph - N/A   Clear
7:56 PM -14.1 °F -28.3 °F -23.1 °F 64% 30.45 in 10.0 mi WSW 5.8 mph - N/A   Clear
8:56 PM -14.1 °F -29.9 °F -23.1 °F 64% 30.45 in 10.0 mi WSW 6.9 mph - N/A   Clear
9:56 PM -15.0 °F -31.0 °F -23.1 °F 67% 30.45 in 10.0 mi WSW 6.9 mph - N/A   Clear
10:56 PM -14.1 °F -31.3 °F -22.0 °F 68% 30.44 in 10.0 mi West 8.1 mph - N/A   Clear
11:56 PM -15.0 °F -32.4 °F -23.1 °F 67% 30.43 in 10.0 mi West 8.1 mph - N/A   Clear